Location: Alston School (historical)
(35.5076°N, 89.8251°W)
Time: 17:25:21
(UTC+00:00)

Cosmos 2058 Rocket - Pass Details

Date: 14 March 2026
Orbit: 604 x 632 km, 82.5° (Epoch: 18 April)

Event Time Altitude Azimuth Distance (km) Brightness Sun altitude
Rises 11:28:32 0° 155° (SSE) 2,877 6.8 -9.5°
Reaches altitude 10° 11:31:06 10° 141° (SE) 1,982 6.2 -9.0°
Maximum altitude 11:34:34 23° 89° (E) 1,324 5.9 -8.3°
Drops below altitude 10° 11:38:04 10° 36° (NE) 2,006 6.3 -7.6°
Sets 11:40:40 0° 23° (NNE) 2,922 6.9 -7.1°
